Location: Boiro
(42.6475°N, 8.8834°W)
Time: 19:06:16
(UTC+01:00)

Tiros 1 despin weight - Pass Details

Date: 04 December 2021
Orbit: 592 x 641 km, 48.2° (Epoch: 27 January)

Event Time Altitude Azimuth Distance (km) Brightness Sun altitude
Rises 16:19:46 0° 269° (W) 2,829 ? 13.7°
Reaches altitude 10° 16:22:08 10° 275° (W) 1,925 ? 13.4°
Maximum altitude 16:26:22 45° 349° (N) 813 ? 12.9°
Drops below altitude 10° 16:30:36 10° 63° (ENE) 1,923 ? 12.3°
Sets 16:32:58 0° 70° (ENE) 2,827 ? 12.0°
